Total_Precipitation_Accumulation
0.11 0.05 0.05 0.05 0.05 0.06 0.06 0.07 0.08 0.09 0.08 0.07 0.07 0.06 0.06 0.06 0.06 0.05 0.04 0.05 0.08 0.13 0.18 0.20 0.22 0.25 0.28 0.21 0.12 0.09 0.08 0.08 0.09 0.11 0.13 0.15 0.17 0.19 0.20 0.16 0.19 0.14 0.10
0.09 0.05 0.05 0.04 0.04 0.06 0.06 0.08 0.08 0.09 0.07 0.07 0.06 0.06 0.06 0.06 0.07 0.07 0.07 0.07 0.10 0.13 0.14 0.15 0.18 0.19 0.18 0.12 0.08 0.07 0.08 0.09 0.17 0.26 0.33 0.33 0.31 0.27 0.29 0.29 0.31 0.20 0.11
0.09 0.06 0.05 0.04 0.04 0.05 0.06 0.09 0.10 0.10 0.10 0.09 0.08 0.07 0.07 0.07 0.08 0.08 0.08 0.09 0.12 0.15 0.14 0.13 0.12 0.12 0.09 0.08 0.07 0.08 0.11 0.16 0.30 0.47 0.73 0.87 0.66 0.49 0.36 0.31 0.28 0.19 0.16
0.08 0.06 0.05 0.04 0.04 0.04 0.05 0.07 0.10 0.10 0.09 0.08 0.08 0.07 0.07 0.07 0.08 0.09 0.10 0.12 0.16 0.19 0.17 0.13 0.10 0.08 0.06 0.06 0.06 0.09 0.14 0.22 0.40 0.68 1.28 1.16 1.07 0.82 0.44 0.31 0.25 0.25 0.32
0.06 0.05 0.05 0.05 0.05 0.04 0.05 0.06 0.08 0.09 0.08 0.08 0.08 0.07 0.08 0.08 0.08 0.10 0.15 0.18 0.20 0.20 0.21 0.18 0.13 0.09 0.06 0.05 0.07 0.11 0.17 0.28 0.54 0.89 1.35 1.60 1.71 1.09 0.59 0.42 0.34 0.33 0.41
0.08 0.05 0.05 0.05 0.06 0.06 0.06 0.07 0.09 0.10 0.10 0.10 0.10 0.10 0.10 0.10 0.11 0.14 0.22 0.28 0.26 0.24 0.27 0.26 0.21 0.15 0.08 0.07 0.09 0.13 0.22 0.36 0.56 0.88 1.35 1.91 1.67 1.10 0.73 0.54 0.46 0.43 0.48
0.10 0.08 0.07 0.09 0.10 0.09 0.08 0.09 0.11 0.13 0.15 0.17 0.16 0.16 0.15 0.15 0.17 0.22 0.29 0.31 0.30 0.29 0.29 0.25 0.18 0.12 0.09 0.10 0.11 0.15 0.26 0.40 0.56 1.01 1.43 1.76 1.49 0.99 0.74 0.57 0.49 0.46 0.49
0.14 0.10 0.09 0.12 0.13 0.13 0.13 0.14 0.17 0.19 0.20 0.21 0.20 0.20 0.18 0.17 0.19 0.25 0.29 0.31 0.31 0.28 0.23 0.18 0.15 0.13 0.13 0.14 0.15 0.19 0.27 0.33 0.44 0.91 1.28 1.40 1.10 0.86 0.71 0.55 0.45 0.39 0.37
0.22 0.21 0.19 0.20 0.19 0.21 0.25 0.28 0.28 0.28 0.27 0.25 0.23 0.20 0.18 0.19 0.22 0.25 0.30 0.35 0.33 0.24 0.19 0.17 0.15 0.13 0.12 0.12 0.12 0.15 0.20 0.30 0.39 0.71 1.20 1.39 0.90 0.80 0.73 0.54 0.39 0.33 0.33
0.49 0.49 0.46 0.41 0.35 0.31 0.32 0.35 0.37 0.37 0.35 0.31 0.25 0.21 0.23 0.26 0.28 0.32 0.30 0.31 0.30 0.24 0.20 0.17 0.15 0.12 0.11 0.10 0.10 0.13 0.18 0.21 0.29 0.64 1.05 1.11 0.93 0.97 0.93 0.70 0.47 0.36 0.33
0.94 0.96 0.85 0.73 0.60 0.61 0.56 0.45 0.48 0.48 0.46 0.40 0.35 0.30 0.33 0.41 0.46 0.50 0.43 0.44 0.35 0.29 0.25 0.23 0.19 0.17 0.15 0.13 0.14 0.16 0.16 0.21 0.39 0.69 1.17 1.18 1.20 1.18 1.12 0.93 0.69 0.53 0.46
1.35 1.23 1.04 1.03 0.98 0.92 0.80 0.70 0.70 0.61 0.58 0.52 0.58 0.50 0.56 0.80 0.92 0.82 0.78 0.63 0.56 0.48 0.40 0.37 0.34 0.27 0.20 0.21 0.25 0.23 0.19 0.26 0.42 0.71 0.99 1.12 1.19 1.31 1.27 1.07 0.85 0.71 0.65
1.44 1.25 1.22 1.32 1.27 1.30 1.26 1.20 1.08 1.01 0.94 0.82 0.91 0.87 0.93 0.95 0.93 0.97 1.01 0.86 0.78 0.73 0.70 0.69 0.53 0.41 0.41 0.46 0.48 0.40 0.32 0.37 0.44 0.63 0.88 1.02 1.12 1.33 1.39 1.20 0.98 0.90 0.80
1.77 1.54 1.44 1.33 1.40 1.57 1.55 1.50 1.48 1.45 1.42 1.34 1.30 1.15 1.23 1.30 1.31 1.25 1.36 1.33 1.32 1.24 1.14 1.03 0.90 0.76 0.70 0.72 0.74 0.72 0.61 0.55 0.66 0.83 0.98 0.96 1.04 1.27 1.40 1.30 1.13 1.04 0.95
2.20 2.02 1.77 1.70 1.66 1.68 1.76 1.77 1.53 1.56 1.63 1.76 1.72 1.51 1.52 1.49 1.52 1.66 1.70 1.75 1.65 1.73 1.64 1.43 1.20 1.11 1.02 0.88 0.86 0.88 0.84 0.82 0.86 0.93 1.08 1.13 1.11 1.26 1.45 1.47 1.34 1.23 1.21
2.35 2.27 2.09 1.93 1.87 1.77 1.93 2.06 1.91 1.76 1.80 1.83 1.88 1.74 1.72 1.73 1.79 1.87 1.91 1.96 1.83 1.81 1.85 1.71 1.45 1.34 1.26 1.13 1.01 0.95 0.92 0.98 1.01 0.99 1.16 1.26 1.19 1.15 1.33 1.57 1.65 1.65 1.63
2.41 2.26 2.28 2.14 2.23 2.28 2.42 2.44 2.43 2.34 2.30 2.24 2.15 2.16 2.08 2.03 2.05 2.01 2.17 2.25 2.12 2.05 2.01 1.88 1.77 1.56 1.51 1.47 1.39 1.26 1.16 1.14 1.22 1.31 1.36 1.46 1.49 1.38 1.38 1.56 1.73 1.80 1.82
2.25 2.29 2.41 2.32 2.39 2.54 2.49 2.37 2.42 2.62 2.61 2.52 2.44 2.47 2.35 2.33 2.38 2.46 2.41 2.32 2.24 2.21 2.20 2.23 2.06 1.85 1.78 1.86 1.78 1.54 1.33 1.34 1.45 1.51 1.49 1.57 1.68 1.59 1.57 1.49 1.55 1.66 1.77
2.21 2.11 2.21 2.39 2.35 2.49 2.50 2.44 2.50 2.76 2.90 2.93 2.90 2.81 2.69 2.66 2.70 2.85 2.89 2.70 2.48 2.38 2.38 2.25 2.23 2.13 2.12 2.11 1.83 1.61 1.40 1.36 1.44 1.47 1.48 1.56 1.73 1.78 1.76 1.58 1.58 1.75 1.84
2.14 2.14 2.16 2.39 2.36 2.52 2.65 2.57 2.62 2.69 2.80 2.92 3.05 3.15 3.29 3.31 3.27 3.27 3.15 2.95 2.79 2.67 2.62 2.52 2.45 2.38 2.23 2.08 1.72 1.55 1.39 1.29 1.31 1.38 1.42 1.46 1.51 1.56 1.59 1.57 1.60 1.58 1.67
2.22 2.24 2.16 2.20 2.37 2.46 2.63 2.78 3.01 3.02 3.01 3.27 3.54 3.68 3.88 3.93 3.74 3.68 3.57 3.37 3.17 2.96 2.81 2.62 2.48 2.38 2.20 2.02 1.84 1.66 1.41 1.21 1.22 1.27 1.26 1.27 1.32 1.32 1.37 1.43 1.54 1.52 1.46
2.29 2.25 2.29 2.47 2.54 2.67 3.01 3.47 3.87 4.18 4.33 4.43 4.65 4.66 4.54 4.38 4.24 4.10 3.96 3.73 3.46 3.21 2.97 2.76 2.51 2.33 2.14 1.97 1.89 1.91 1.70 1.47 1.18 1.02 1.01 1.01 1.03 1.02 1.08 1.17 1.21 1.25 1.25
2.12 2.28 2.34 2.64 3.00 3.35 3.84 4.39 4.81 5.16 5.37 5.27 5.10 4.97 4.73 4.49 4.29 3.98 3.74 3.66 3.44 3.09 2.85 2.67 2.45 2.26 2.04 1.88 1.77 1.85 1.80 1.63 1.37 1.18 0.99 0.87 0.87 0.94 0.98 1.07 1.10 1.05 1.03
1.85 2.12 2.42 2.72 3.27 4.01 4.68 5.24 5.71 5.91 5.88 5.73 5.47 5.09 4.69 4.35 4.01 3.69 3.40 3.13 2.90 2.64 2.41 2.26 2.15 2.07 1.97 1.85 1.76 1.56 1.37 1.23 1.27 1.22 1.07 0.95 0.89 0.92 0.91 0.89 0.92 0.94 0.92
1.67 1.95 2.32 2.77 3.42 4.09 4.71 5.29 5.74 5.93 5.83 5.55 5.10 4.58 4.07 3.59 3.22 2.93 2.67 2.39 2.15 1.97 1.82 1.66 1.61 1.72 1.79 1.78 1.76 1.67 1.49 1.31 1.19 1.13 1.11 1.06 1.00 0.98 0.93 0.89 0.85 0.85 0.82
1.44 1.75 2.12 2.55 3.07 3.57 4.00 4.55 4.88 5.05 4.98 4.64 4.15 3.55 3.09 2.76 2.47 2.24 2.01 1.78 1.58 1.43 1.33 1.26 1.24 1.30 1.40 1.47 1.51 1.52 1.51 1.51 1.44 1.33 1.26 1.20 1.16 1.12 1.03 0.97 0.94 0.92 0.89